Tracking 28908 objects as of 20-May-2024
HD Live streaming from Space Station
objects crossing your sky now

STARLINK-30087

Track STARLINK-30087 now!
10-day predictions
STARLINK-30087 is classified as:


NORAD ID: 56691
Int'l Code: 2023-067D
Perigee: 435.5 km
Apogee: 481.4 km
Inclination: 43.0 °
Period: 93.6 minutes
Semi major axis: 6829 km
RCS: Unknown
Launch date: May 19, 2023
Source: United States (US)
Launch site: AIR FORCE EASTERN TEST RANGE (AFETR)
Your satellite tracking list
Your tracking list is empty




NASA's NSSDC Master Catalog

Two Line Element Set (TLE):
1 56691U 23067D   24140.58334491  .00064873  00000-0  16457-2 0  9996
2 56691  42.9991 217.7001 0033659  24.7131 291.1177 15.38242226  5924
Source of the keplerian elements: AFSPC